Time,TemperatureF,DewpointF,PressureIn,WindDirection,WindDirectionDegrees,WindSpeedMPH,WindSpeedGustMPH,Humidity,HourlyPrecipIn,Conditions,Clouds,dailyrainin,SoftwareType,DateUTC
2013-11-01 00:00:00,72.5,57.4,29.98,South,187,0.0,4.0,59,0.00,,,0.00,VWS V14.00,2013-11-01 04:00:00,
2013-11-01 00:01:00,72.5,57.4,29.98,South,187,0.0,0.0,59,0.00,,,0.00,VWS V14.00,2013-11-01 04:01:00,
2013-11-01 00:02:00,72.5,57.4,29.98,South,188,0.0,0.0,59,0.00,,,0.00,VWS V14.00,2013-11-01 04:02:00,
2013-11-01 00:03:00,72.5,57.4,29.98,SW,214,0.0,3.1,59,0.00,,,0.00,VWS V14.00,2013-11-01 04:03:00,
2013-11-01 00:05:00,72.5,57.4,29.98,SSE,155,3.6,3.6,59,0.00,,,0.00,VWS V14.00,2013-11-01 04:05:00,
2013-11-01 00:10:00,72.5,57.4,29.98,SSW,209,5.4,5.4,59,0.00,,,0.00,VWS V14.00,2013-11-01 04:10:00,
2013-11-01 00:15:00,72.5,57.4,29.98,SE,129,3.1,3.1,59,0.00,,,0.00,VWS V14.00,2013-11-01 04:15:00,
2013-11-01 00:20:00,72.5,57.4,29.95,SSW,196,3.1,3.1,59,0.00,,,0.00,VWS V14.00,2013-11-01 04:20:00,
2013-11-01 00:25:00,72.5,57.4,29.95,SW,223,0.0,5.4,59,0.00,,,0.00,VWS V14.00,2013-11-01 04:25:00,
2013-11-01 00:30:00,72.5,57.4,29.95,SE,145,2.2,2.7,59,0.00,,,0.00,VWS V14.00,2013-11-01 04:30:00,
2013-11-01 00:35:00,72.5,57.4,29.95,WSW,245,0.0,0.0,59,0.00,,,0.00,VWS V14.00,2013-11-01 04:35:00,
2013-11-01 00:40:00,72.5,57.4,29.95,South,170,0.0,2.2,59,0.00,,,0.00,VWS V14.00,2013-11-01 04:40:00,
2013-11-01 00:45:00,72.5,57.4,29.95,SW,235,3.1,4.0,59,0.00,,,0.00,VWS V14.00,2013-11-01 04:45:00,
2013-11-01 00:51:00,72.5,57.4,29.95,SW,222,2.2,3.6,59,0.00,,,0.00,VWS V14.00,2013-11-01 04:51:00,
2013-11-01 00:56:00,72.5,57.4,29.95,SSW,205,4.0,4.0,59,0.00,,,0.00,VWS V14.00,2013-11-01 04:56:00,
2013-11-01 01:01:00,72.5,57.4,29.95,ESE,114,0.0,5.4,59,0.00,,,0.00,VWS V14.00,2013-11-01 05:01:00,
2013-11-01 01:06:00,72.5,57.4,29.95,SSW,200,2.7,5.4,59,0.00,,,0.00,VWS V14.00,2013-11-01 05:06:00,
2013-11-01 01:11:00,72.5,57.4,29.95,WSW,240,4.0,4.0,59,0.00,,,0.00,VWS V14.00,2013-11-01 05:11:00,
2013-11-01 01:16:00,72.5,57.4,29.95,West,278,0.0,3.1,59,0.00,,,0.00,VWS V14.00,2013-11-01 05:16:00,
2013-11-01 01:21:00,72.5,57.4,29.95,SSW,207,3.6,6.3,59,0.00,,,0.00,VWS V14.00,2013-11-01 05:21:00,
2013-11-01 01:26:00,72.5,57.4,29.95,SSW,208,3.6,3.6,59,0.00,,,0.00,VWS V14.00,2013-11-01 05:26:00,
2013-11-01 01:31:00,72.5,57.4,29.95,SSW,192,0.0,2.7,59,0.00,,,0.00,VWS V14.00,2013-11-01 05:31:00,
2013-11-01 01:36:00,72.5,57.4,29.95,South,180,2.2,2.7,59,0.00,,,0.00,VWS V14.00,2013-11-01 05:36:00,
2013-11-01 01:41:00,72.5,57.4,29.95,SE,139,0.0,2.7,59,0.00,,,0.00,VWS V14.00,2013-11-01 05:41:00,
2013-11-01 01:46:00,72.5,57.4,29.95,SW,226,2.2,3.6,59,0.00,,,0.00,VWS V14.00,2013-11-01 05:46:00,
2013-11-01 01:51:00,72.5,57.4,29.92,SSW,205,2.7,4.9,59,0.00,,,0.00,VWS V14.00,2013-11-01 05:51:00,
2013-11-01 01:56:00,72.5,57.4,29.92,SW,231,3.1,3.1,59,0.00,,,0.00,VWS V14.00,2013-11-01 05:56:00,
2013-11-01 02:01:00,72.5,57.4,29.92,WNW,284,2.2,4.0,59,0.00,,,0.00,VWS V14.00,2013-11-01 06:01:00,
2013-11-01 02:06:00,72.5,57.4,29.92,SSE,151,0.0,2.2,59,0.00,,,0.00,VWS V14.00,2013-11-01 06:06:00,
2013-11-01 02:11:00,72.5,57.4,29.92,SSE,166,0.0,0.0,59,0.00,,,0.00,VWS V14.00,2013-11-01 06:11:00,
2013-11-01 02:16:00,72.5,57.4,29.92,SSE,168,3.1,3.1,59,0.00,,,0.00,VWS V14.00,2013-11-01 06:16:00,
2013-11-01 02:21:00,72.5,57.4,29.92,SE,136,2.2,3.6,59,0.00,,,0.00,VWS V14.00,2013-11-01 06:21:00,
2013-11-01 02:27:00,72.5,57.4,29.92,WSW,240,2.2,2.2,59,0.00,,,0.00,VWS V14.00,2013-11-01 06:27:00,
2013-11-01 02:32:00,72.5,57.4,29.92,South,176,0.0,4.0,59,0.00,,,0.00,VWS V14.00,2013-11-01 06:32:00,
2013-11-01 02:37:00,72.5,57.4,29.92,SSW,210,2.2,3.1,59,0.00,,,0.00,VWS V14.00,2013-11-01 06:37:00,
2013-11-01 02:42:00,72.5,57.4,29.92,SW,220,3.6,5.4,59,0.00,,,0.00,VWS V14.00,2013-11-01 06:42:00,
2013-11-01 02:47:00,72.5,57.4,29.92,SW,214,2.7,2.7,59,0.00,,,0.00,VWS V14.00,2013-11-01 06:47:00,
2013-11-01 02:52:00,72.5,57.4,29.89,ESE,121,4.0,4.0,59,0.00,,,0.00,VWS V14.00,2013-11-01 06:52:00,
2013-11-01 02:57:00,72.5,57.4,29.89,SSE,160,0.0,0.0,59,0.00,,,0.00,VWS V14.00,2013-11-01 06:57:00,
2013-11-01 03:02:00,72.5,57.4,29.89,ESE,114,4.0,4.0,59,0.00,,,0.00,VWS V14.00,2013-11-01 07:02:00,
2013-11-01 03:07:00,72.5,57.4,29.86,SSW,202,0.0,0.0,59,0.00,,,0.00,VWS V14.00,2013-11-01 07:07:00,
2013-11-01 03:12:00,72.5,57.4,29.86,South,176,2.7,4.0,59,0.00,,,0.00,VWS V14.00,2013-11-01 07:12:00,
2013-11-01 03:17:00,72.5,57.4,29.86,SE,132,5.8,5.8,59,0.00,,,0.00,VWS V14.00,2013-11-01 07:17:00,
2013-11-01 03:22:00,72.5,57.4,29.86,SSE,166,3.6,3.6,59,0.00,,,0.00,VWS V14.00,2013-11-01 07:22:00,
2013-11-01 03:27:00,72.5,57.4,29.86,South,179,3.1,5.8,59,0.00,,,0.00,VWS V14.00,2013-11-01 07:27:00,
2013-11-01 03:32:00,72.5,57.4,29.86,SW,232,4.9,4.9,59,0.00,,,0.00,VWS V14.00,2013-11-01 07:32:00,
2013-11-01 03:37:00,72.5,57.4,29.89,SW,222,2.7,5.8,59,0.00,,,0.00,VWS V14.00,2013-11-01 07:37:00,
2013-11-01 03:42:00,72.5,57.4,29.89,SW,222,2.7,3.6,59,0.00,,,0.00,VWS V14.00,2013-11-01 07:42:00,
2013-11-01 03:47:00,72.5,57.4,29.89,SW,216,0.0,4.9,59,0.00,,,0.00,VWS V14.00,2013-11-01 07:47:00,
2013-11-01 03:53:00,72.5,57.4,29.86,SW,222,3.1,3.6,59,0.00,,,0.00,VWS V14.00,2013-11-01 07:53:00,
2013-11-01 03:58:00,72.5,57.4,29.86,SSW,193,0.0,2.2,59,0.00,,,0.00,VWS V14.00,2013-11-01 07:58:00,
2013-11-01 04:03:00,72.5,57.4,29.86,SSW,200,0.0,2.2,59,0.00,,,0.00,VWS V14.00,2013-11-01 08:03:00,
2013-11-01 04:08:00,72.5,57.4,29.86,SW,229,0.0,3.6,59,0.00,,,0.00,VWS V14.00,2013-11-01 08:08:00,
2013-11-01 04:13:00,72.5,57.4,29.86,SW,236,2.2,3.6,59,0.00,,,0.00,VWS V14.00,2013-11-01 08:13:00,
2013-11-01 04:18:00,72.5,57.4,29.86,South,187,4.0,7.2,59,0.00,,,0.00,VWS V14.00,2013-11-01 08:18:00,
2013-11-01 04:23:00,72.5,57.4,29.86,WSW,252,2.7,3.1,59,0.00,,,0.00,VWS V14.00,2013-11-01 08:23:00,
2013-11-01 04:28:00,72.5,57.4,29.86,WSW,242,3.1,3.1,59,0.00,,,0.00,VWS V14.00,2013-11-01 08:28:00,
2013-11-01 04:33:00,72.5,57.4,29.86,South,183,0.0,2.2,59,0.00,,,0.00,VWS V14.00,2013-11-01 08:33:00,
2013-11-01 04:38:00,72.5,57.4,29.86,WSW,245,0.0,0.0,59,0.00,,,0.00,VWS V14.00,2013-11-01 08:38:00,
2013-11-01 04:43:00,72.5,57.4,29.86,SW,231,0.0,2.2,59,0.00,,,0.00,VWS V14.00,2013-11-01 08:43:00,
2013-11-01 04:48:00,72.5,57.4,29.86,SSW,207,0.0,4.0,59,0.00,,,0.00,VWS V14.00,2013-11-01 08:48:00,
2013-11-01 04:53:00,72.5,57.4,29.86,SSW,193,3.1,3.6,59,0.00,,,0.00,VWS V14.00,2013-11-01 08:53:00,
2013-11-01 04:58:00,72.5,57.4,29.86,SSW,200,0.0,2.7,59,0.00,,,0.00,VWS V14.00,2013-11-01 08:58:00,
2013-11-01 05:03:00,72.5,57.4,29.86,SW,216,0.0,5.8,59,0.00,,,0.00,VWS V14.00,2013-11-01 09:03:00,
2013-11-01 05:08:00,72.5,57.4,29.86,South,180,3.6,5.4,59,0.00,,,0.00,VWS V14.00,2013-11-01 09:08:00,
2013-11-01 05:13:00,72.5,57.4,29.86,WSW,241,3.1,4.0,59,0.00,,,0.00,VWS V14.00,2013-11-01 09:13:00,
2013-11-01 05:19:00,72.5,57.4,29.86,SW,235,0.0,0.0,59,0.00,,,0.00,VWS V14.00,2013-11-01 09:19:00,
2013-11-01 05:24:00,72.5,57.4,29.86,SW,214,3.1,8.7,59,0.00,,,0.00,VWS V14.00,2013-11-01 09:24:00,
2013-11-01 05:29:00,72.5,57.4,29.86,SW,216,5.8,5.8,59,0.00,,,0.00,VWS V14.00,2013-11-01 09:29:00,
2013-11-01 05:34:00,72.5,57.4,29.86,SSW,213,0.0,4.0,59,0.00,,,0.00,VWS V14.00,2013-11-01 09:34:00,
2013-11-01 05:39:00,72.5,57.4,29.86,SW,228,3.6,6.3,59,0.00,,,0.00,VWS V14.00,2013-11-01 09:39:00,
2013-11-01 05:44:00,72.5,57.4,29.86,SSE,165,0.0,0.0,59,0.00,,,0.00,VWS V14.00,2013-11-01 09:44:00,
2013-11-01 05:49:00,72.5,57.4,29.86,SSW,200,2.7,3.6,59,0.00,,,0.00,VWS V14.00,2013-11-01 09:49:00,
2013-11-01 05:54:00,72.5,57.4,29.86,WSW,245,2.7,6.3,59,0.00,,,0.00,VWS V14.00,2013-11-01 09:54:00,
2013-11-01 05:59:00,72.5,57.4,29.86,SE,139,2.7,5.4,59,0.00,,,0.00,VWS V14.00,2013-11-01 09:59:00,
2013-11-01 06:04:00,72.5,57.4,29.86,SSW,196,6.3,6.3,59,0.00,,,0.00,VWS V14.00,2013-11-01 10:04:00,
2013-11-01 06:09:00,72.5,57.4,29.86,SSE,164,2.7,3.6,59,0.00,,,0.00,VWS V14.00,2013-11-01 10:09:00,
2013-11-01 06:14:00,72.5,57.4,29.86,WSW,242,3.1,3.1,59,0.00,,,0.00,VWS V14.00,2013-11-01 10:14:00,
2013-11-01 06:19:00,72.5,57.4,29.86,SW,236,2.7,3.6,59,0.00,,,0.00,VWS V14.00,2013-11-01 10:19:00,
2013-11-01 06:24:00,72.5,57.4,29.86,ESE,103,0.0,0.0,59,0.00,,,0.00,VWS V14.00,2013-11-01 10:24:00,
2013-11-01 06:29:00,72.5,57.4,29.86,ESE,123,2.7,4.9,59,0.00,,,0.00,VWS V14.00,2013-11-01 10:29:00,
2013-11-01 06:34:00,72.5,57.4,29.86,SSE,168,3.1,4.0,59,0.00,,,0.00,VWS V14.00,2013-11-01 10:34:00,
2013-11-01 06:39:00,72.5,57.4,29.86,SE,142,0.0,0.0,59,0.00,,,0.00,VWS V14.00,2013-11-01 10:39:00,
2013-11-01 06:45:00,72.5,57.4,29.86,SW,221,0.0,0.0,59,0.00,,,0.00,VWS V14.00,2013-11-01 10:45:00,
2013-11-01 06:50:00,72.5,57.4,29.86,WSW,237,4.0,4.9,59,0.00,,,0.00,VWS V14.00,2013-11-01 10:50:00,
2013-11-01 06:55:00,72.5,57.4,29.86,South,185,0.0,0.0,59,0.00,,,0.00,VWS V14.00,2013-11-01 10:55:00,
2013-11-01 07:00:00,72.5,57.4,29.86,SE,125,2.7,3.6,59,0.00,,,0.00,VWS V14.00,2013-11-01 11:00:00,
2013-11-01 07:05:00,72.5,57.4,29.86,SW,225,2.7,5.4,59,0.00,,,0.00,VWS V14.00,2013-11-01 11:05:00,
2013-11-01 07:10:00,72.5,57.4,29.86,SW,221,0.0,3.1,59,0.00,,,0.00,VWS V14.00,2013-11-01 11:10:00,
2013-11-01 07:15:00,72.5,57.4,29.86,SSW,205,3.1,5.4,59,0.00,,,0.00,VWS V14.00,2013-11-01 11:15:00,
2013-11-01 07:20:00,72.5,57.4,29.86,ESE,110,3.1,4.0,59,0.00,,,0.00,VWS V14.00,2013-11-01 11:20:00,
2013-11-01 07:25:00,72.5,57.4,29.86,WSW,253,2.2,3.1,59,0.00,,,0.00,VWS V14.00,2013-11-01 11:25:00,
2013-11-01 07:30:00,72.5,57.4,29.86,SW,215,4.9,4.9,59,0.00,,,0.00,VWS V14.00,2013-11-01 11:30:00,
2013-11-01 07:35:00,72.5,57.4,29.86,SW,225,2.2,3.6,59,0.00,,,0.00,VWS V14.00,2013-11-01 11:35:00,
2013-11-01 07:40:00,72.5,57.4,29.86,ESE,123,0.0,2.2,59,0.00,,,0.00,VWS V14.00,2013-11-01 11:40:00,
2013-11-01 07:45:00,72.5,57.4,29.86,West,268,3.6,3.6,59,0.00,,,0.00,VWS V14.00,2013-11-01 11:45:00,
2013-11-01 07:50:00,72.5,57.4,29.86,SE,127,0.0,0.0,59,0.00,,,0.00,VWS V14.00,2013-11-01 11:50:00,
2013-11-01 07:55:00,72.5,57.4,29.86,SSW,202,6.3,6.3,59,0.00,,,0.00,VWS V14.00,2013-11-01 11:55:00,
2013-11-01 08:01:00,72.5,57.4,29.86,ESE,103,0.0,2.7,59,0.00,,,0.00,VWS V14.00,2013-11-01 12:01:00,
2013-11-01 08:06:00,72.5,57.4,29.86,WSW,245,4.0,4.0,59,0.00,,,0.00,VWS V14.00,2013-11-01 12:06:00,
2013-11-01 08:11:00,72.5,57.4,29.86,South,180,2.2,4.9,59,0.00,,,0.00,VWS V14.00,2013-11-01 12:11:00,
2013-11-01 08:16:00,72.5,57.4,29.86,West,259,0.0,4.9,59,0.00,,,0.00,VWS V14.00,2013-11-01 12:16:00,
2013-11-01 08:21:00,72.5,57.4,29.86,NW,312,2.7,2.7,59,0.00,,,0.00,VWS V14.00,2013-11-01 12:21:00,
2013-11-01 08:26:00,72.5,57.4,29.86,SSW,213,2.7,4.9,59,0.00,,,0.00,VWS V14.00,2013-11-01 12:26:00,
2013-11-01 08:31:00,72.5,57.4,29.86,South,170,2.2,3.1,59,0.00,,,0.00,VWS V14.00,2013-11-01 12:31:00,
2013-11-01 08:36:00,72.5,57.4,29.86,SW,227,2.2,2.7,59,0.00,,,0.00,VWS V14.00,2013-11-01 12:36:00,
2013-11-01 08:41:00,72.5,57.4,29.86,SSW,206,4.9,4.9,59,0.00,,,0.00,VWS V14.00,2013-11-01 12:41:00,
2013-11-01 08:46:00,72.5,57.4,29.86,SSW,192,2.7,4.0,59,0.00,,,0.00,VWS V14.00,2013-11-01 12:46:00,
2013-11-01 08:51:00,72.5,57.4,29.89,SSE,158,2.7,2.7,59,0.00,,,0.00,VWS V14.00,2013-11-01 12:51:00,
2013-11-01 08:56:00,72.5,57.4,29.89,SE,130,4.5,4.5,59,0.00,,,0.00,VWS V14.00,2013-11-01 12:56:00,
2013-11-01 09:01:00,72.5,57.4,29.89,South,181,3.1,5.4,59,0.00,,,0.00,VWS V14.00,2013-11-01 13:01:00,
2013-11-01 09:06:00,72.5,57.4,29.89,WSW,240,3.6,5.4,59,0.00,,,0.00,VWS V14.00,2013-11-01 13:06:00,
2013-11-01 09:11:00,72.5,57.4,29.89,SW,222,3.1,7.6,59,0.00,,,0.00,VWS V14.00,2013-11-01 13:11:00,
2013-11-01 09:16:00,72.5,57.4,29.89,SW,229,4.0,4.0,59,0.00,,,0.00,VWS V14.00,2013-11-01 13:16:00,
2013-11-01 09:21:00,72.5,57.4,29.89,South,175,4.5,4.5,59,0.00,,,0.00,VWS V14.00,2013-11-01 13:21:00,
2013-11-01 09:27:00,72.5,57.4,29.89,SW,224,4.0,4.0,59,0.00,,,0.00,VWS V14.00,2013-11-01 13:27:00,
2013-11-01 09:32:00,72.5,57.4,29.89,SSW,210,3.6,8.1,59,0.00,,,0.00,VWS V14.00,2013-11-01 13:32:00,
2013-11-01 09:37:00,72.5,57.4,29.89,SW,224,5.8,5.8,59,0.00,,,0.00,VWS V14.00,2013-11-01 13:37:00,
2013-11-01 09:42:00,72.5,57.4,29.89,SW,231,3.6,4.0,59,0.00,,,0.00,VWS V14.00,2013-11-01 13:42:00,
2013-11-01 09:47:00,72.5,57.4,29.89,SSW,197,7.2,8.1,59,0.00,,,0.00,VWS V14.00,2013-11-01 13:47:00,
2013-11-01 09:52:00,72.5,57.4,29.89,SSW,213,3.1,6.3,59,0.00,,,0.00,VWS V14.00,2013-11-01 13:52:00,
2013-11-01 09:57:00,72.5,57.4,29.89,SSW,202,2.2,5.8,59,0.00,,,0.00,VWS V14.00,2013-11-01 13:57:00,
2013-11-01 10:02:00,72.5,57.4,29.89,South,189,0.0,6.3,59,0.00,,,0.00,VWS V14.00,2013-11-01 14:02:00,
2013-11-01 10:07:00,72.5,57.4,29.89,WSW,239,5.4,5.4,59,0.00,,,0.00,VWS V14.00,2013-11-01 14:07:00,
2013-11-01 10:12:00,72.5,57.4,29.89,SE,145,3.1,3.1,59,0.00,,,0.00,VWS V14.00,2013-11-01 14:12:00,
2013-11-01 10:17:00,72.5,57.4,29.89,WSW,244,2.7,5.4,59,0.00,,,0.00,VWS V14.00,2013-11-01 14:17:00,
2013-11-01 10:22:00,72.5,57.4,29.89,SW,229,3.6,3.6,59,0.00,,,0.00,VWS V14.00,2013-11-01 14:22:00,
2013-11-01 10:27:00,72.5,57.4,29.89,SW,221,3.6,4.9,59,0.00,,,0.00,VWS V14.00,2013-11-01 14:27:00,
2013-11-01 10:32:00,72.5,57.4,29.89,SSW,197,2.2,3.6,59,0.00,,,0.00,VWS V14.00,2013-11-01 14:32:00,
2013-11-01 10:37:00,72.5,57.4,29.86,South,171,6.3,7.2,59,0.00,,,0.00,VWS V14.00,2013-11-01 14:37:00,
2013-11-01 10:42:00,72.5,57.4,29.86,WSW,256,2.7,4.0,59,0.00,,,0.00,VWS V14.00,2013-11-01 14:42:00,
2013-11-01 10:47:00,72.5,57.4,29.86,SE,141,2.2,2.7,59,0.00,,,0.00,VWS V14.00,2013-11-01 14:47:00,
2013-11-01 10:53:00,72.5,57.4,29.86,South,172,3.6,5.4,59,0.00,,,0.00,VWS V14.00,2013-11-01 14:53:00,
2013-11-01 10:58:00,72.5,57.4,29.86,SSW,201,2.7,3.6,59,0.00,,,0.00,VWS V14.00,2013-11-01 14:58:00,
2013-11-01 11:03:00,72.5,57.4,29.86,SE,146,3.6,5.4,59,0.00,,,0.00,VWS V14.00,2013-11-01 15:03:00,
2013-11-01 11:08:00,72.5,57.4,29.86,SW,218,3.6,5.8,59,0.00,,,0.00,VWS V14.00,2013-11-01 15:08:00,
2013-11-01 11:13:00,72.5,57.4,29.86,West,260,4.5,4.9,59,0.00,,,0.00,VWS V14.00,2013-11-01 15:13:00,
2013-11-01 11:18:00,72.5,57.4,29.86,WSW,257,2.7,5.8,59,0.00,,,0.00,VWS V14.00,2013-11-01 15:18:00,
2013-11-01 11:23:00,72.5,57.4,29.86,WSW,237,2.7,6.3,59,0.00,,,0.00,VWS V14.00,2013-11-01 15:23:00,
2013-11-01 11:28:00,72.5,57.4,29.86,SW,232,5.4,5.4,59,0.00,,,0.00,VWS V14.00,2013-11-01 15:28:00,
2013-11-01 11:33:00,72.5,57.4,29.86,West,264,2.2,3.1,59,0.00,,,0.00,VWS V14.00,2013-11-01 15:33:00,
2013-11-01 11:38:00,72.5,57.4,29.86,SSE,152,3.1,3.1,59,0.00,,,0.00,VWS V14.00,2013-11-01 15:38:00,
2013-11-01 11:43:00,72.5,57.4,29.86,South,174,2.2,3.6,59,0.00,,,0.00,VWS V14.00,2013-11-01 15:43:00,
2013-11-01 11:48:00,72.5,57.4,29.86,SSE,163,0.0,0.0,59,0.00,,,0.00,VWS V14.00,2013-11-01 15:48:00,
2013-11-01 11:53:00,72.5,57.4,29.86,West,259,7.6,7.6,59,0.00,,,0.00,VWS V14.00,2013-11-01 15:53:00,
2013-11-01 11:58:00,72.5,57.4,29.86,SW,220,2.7,5.4,59,0.00,,,0.00,VWS V14.00,2013-11-01 15:58:00,
2013-11-01 12:03:00,72.5,57.4,29.86,SSW,207,2.7,4.9,59,0.00,,,0.00,VWS V14.00,2013-11-01 16:03:00,
2013-11-01 12:08:00,72.5,57.4,29.86,SW,228,3.1,4.0,59,0.00,,,0.00,VWS V14.00,2013-11-01 16:08:00,
2013-11-01 12:14:00,72.5,57.4,29.86,South,190,4.0,5.8,59,0.00,,,0.00,VWS V14.00,2013-11-01 16:14:00,
2013-11-01 12:19:00,72.5,57.4,29.86,SW,222,3.6,4.0,59,0.00,,,0.00,VWS V14.00,2013-11-01 16:19:00,
2013-11-01 12:24:00,72.5,57.4,29.86,WSW,239,6.3,6.3,59,0.00,,,0.00,VWS V14.00,2013-11-01 16:24:00,
2013-11-01 12:29:00,73.6,61.5,29.86,SSE,161,0.0,0.0,66,0.00,,,0.00,VWS V14.00,2013-11-01 16:29:00,
2013-11-01 12:34:00,70.3,56.3,29.83,North,5,6.3,8.7,61,0.00,,,0.00,VWS V14.00,2013-11-01 16:34:00,
2013-11-01 12:39:00,70.3,56.7,29.83,NNW,337,5.4,5.8,62,0.00,,,0.00,VWS V14.00,2013-11-01 16:39:00,
2013-11-01 12:44:00,70.3,56.7,29.83,North,0,9.6,9.6,62,0.00,,,0.00,VWS V14.00,2013-11-01 16:44:00,
2013-11-01 12:49:00,70.3,56.7,29.86,NNE,28,4.5,8.1,62,0.00,,,0.04,VWS V14.00,2013-11-01 16:49:00,
2013-11-01 12:54:00,70.3,56.7,29.86,NW,321,3.1,6.3,62,0.00,,,0.04,VWS V14.00,2013-11-01 16:54:00,
2013-11-01 12:59:00,70.3,56.7,29.86,NNW,346,8.7,8.7,62,0.31,,,0.16,VWS V14.00,2013-11-01 16:59:00,
2013-11-01 13:04:00,65.7,62.7,29.86,NNW,331,7.6,7.6,90,0.51,,,0.16,VWS V14.00,2013-11-01 17:04:00,
2013-11-01 13:09:00,65.7,62.7,29.86,NNW,338,4.9,5.4,90,0.51,,,0.16,VWS V14.00,2013-11-01 17:09:00,
2013-11-01 13:14:00,65.7,63.0,29.86,WNW,295,4.9,4.9,91,0.31,,,0.20,VWS V14.00,2013-11-01 17:14:00,
2013-11-01 13:19:00,65.7,63.0,29.86,NNW,336,3.1,5.8,91,0.31,,,0.20,VWS V14.00,2013-11-01 17:19:00,
2013-11-01 13:24:00,65.7,63.0,29.86,NNW,341,4.9,6.3,91,0.24,,,0.24,VWS V14.00,2013-11-01 17:24:00,
2013-11-01 13:29:00,65.7,63.0,29.86,NW,311,3.6,3.6,91,0.24,,,0.24,VWS V14.00,2013-11-01 17:29:00,
2013-11-01 13:35:00,65.7,63.0,29.83,NNW,336,5.4,5.4,91,0.24,,,0.24,VWS V14.00,2013-11-01 17:35:00,
2013-11-01 13:40:00,65.7,63.0,29.83,NNE,15,5.4,6.3,91,0.24,,,0.24,VWS V14.00,2013-11-01 17:40:00,
2013-11-01 13:45:00,65.7,63.0,29.83,WSW,242,3.6,5.8,91,0.24,,,0.24,VWS V14.00,2013-11-01 17:45:00,
2013-11-01 13:50:00,65.7,63.0,29.83,NW,318,3.1,5.4,91,0.24,,,0.24,VWS V14.00,2013-11-01 17:50:00,
2013-11-01 13:55:00,65.7,63.0,29.83,WSW,237,3.1,4.0,91,0.12,,,0.28,VWS V14.00,2013-11-01 17:55:00,
2013-11-01 14:00:00,65.7,63.0,29.83,North,9,0.0,6.3,91,0.12,,,0.28,VWS V14.00,2013-11-01 18:00:00,
2013-11-01 14:05:00,65.7,63.0,29.83,NNW,346,3.6,4.9,91,0.12,,,0.31,VWS V14.00,2013-11-01 18:05:00,
2013-11-01 14:10:00,65.7,63.0,29.83,NW,311,5.4,5.8,91,0.12,,,0.31,VWS V14.00,2013-11-01 18:10:00,
2013-11-01 14:15:00,65.7,63.0,29.83,NNW,346,2.7,5.8,91,0.12,,,0.31,VWS V14.00,2013-11-01 18:15:00,
2013-11-01 14:20:00,65.7,63.0,29.80,NNW,331,2.2,2.2,91,0.12,,,0.31,VWS V14.00,2013-11-01 18:20:00,
2013-11-01 14:25:00,65.7,63.0,29.80,North,357,4.0,6.3,91,0.12,,,0.31,VWS V14.00,2013-11-01 18:25:00,
2013-11-01 14:30:00,65.7,63.0,29.80,North,357,0.0,0.0,91,0.12,,,0.31,VWS V14.00,2013-11-01 18:30:00,
2013-11-01 14:35:00,65.7,63.0,29.80,WNW,303,2.2,3.1,91,0.12,,,0.31,VWS V14.00,2013-11-01 18:35:00,
2013-11-01 14:40:00,65.7,63.0,29.80,North,2,2.7,3.1,91,0.12,,,0.31,VWS V14.00,2013-11-01 18:40:00,
2013-11-01 14:45:00,65.7,63.0,29.80,NNW,327,3.1,4.0,91,0.12,,,0.31,VWS V14.00,2013-11-01 18:45:00,
2013-11-01 14:50:00,65.7,63.0,29.83,NNW,331,3.1,3.1,91,0.08,,,0.35,VWS V14.00,2013-11-01 18:50:00,
2013-11-01 14:56:00,65.7,63.0,29.83,NNW,331,0.0,3.1,91,0.08,,,0.35,VWS V14.00,2013-11-01 18:56:00,
2013-11-01 15:01:00,65.7,63.0,29.83,NNW,346,0.0,2.7,91,0.08,,,0.39,VWS V14.00,2013-11-01 19:01:00,
2013-11-01 15:06:00,65.7,63.0,29.80,NNW,341,3.6,4.0,91,0.08,,,0.39,VWS V14.00,2013-11-01 19:06:00,
2013-11-01 15:11:00,65.7,63.0,29.80,WNW,297,2.2,3.1,91,0.24,,,0.43,VWS V14.00,2013-11-01 19:11:00,
2013-11-01 15:16:00,65.7,63.0,29.80,North,357,0.0,3.6,91,0.24,,,0.43,VWS V14.00,2013-11-01 19:16:00,
2013-11-01 15:21:00,65.7,63.0,29.80,North,357,3.1,3.1,91,0.24,,,0.43,VWS V14.00,2013-11-01 19:21:00,
2013-11-01 15:26:00,64.8,62.1,29.80,WNW,290,0.0,2.7,91,0.24,,,0.43,VWS V14.00,2013-11-01 19:26:00,
2013-11-01 15:31:00,64.8,62.1,29.80,NNW,346,0.0,2.7,91,0.24,,,0.47,VWS V14.00,2013-11-01 19:31:00,
2013-11-01 15:36:00,64.8,62.1,29.80,NW,319,0.0,0.0,91,0.16,,,0.47,VWS V14.00,2013-11-01 19:36:00,
2013-11-01 15:41:00,64.8,62.1,29.80,NW,321,0.0,0.0,91,0.16,,,0.47,VWS V14.00,2013-11-01 19:41:00,
2013-11-01 15:46:00,64.8,62.1,29.80,NNW,341,0.0,0.0,91,0.16,,,0.47,VWS V14.00,2013-11-01 19:46:00,
2013-11-01 15:51:00,64.8,62.1,29.80,WNW,292,0.0,0.0,91,0.16,,,0.47,VWS V14.00,2013-11-01 19:51:00,
2013-11-01 15:56:00,64.8,62.1,29.80,NW,318,0.0,0.0,91,0.16,,,0.47,VWS V14.00,2013-11-01 19:56:00,
2013-11-01 16:02:00,64.8,62.1,29.80,NW,318,0.0,0.0,91,0.16,,,0.47,VWS V14.00,2013-11-01 20:02:00,
2013-11-01 16:07:00,64.8,62.1,29.80,NNW,332,0.0,0.0,91,0.08,,,0.51,VWS V14.00,2013-11-01 20:07:00,
2013-11-01 16:12:00,64.8,62.1,29.80,NNW,331,0.0,0.0,91,0.12,,,0.55,VWS V14.00,2013-11-01 20:12:00,
2013-11-01 16:17:00,64.8,62.1,29.80,SE,128,0.0,0.0,91,0.55,,,0.59,VWS V14.00,2013-11-01 20:17:00,
2013-11-01 16:22:00,64.8,62.1,29.80,SE,127,0.0,0.0,91,0.51,,,0.63,VWS V14.00,2013-11-01 20:22:00,
2013-11-01 16:27:00,64.8,62.1,29.80,SE,128,0.0,0.0,91,0.51,,,0.63,VWS V14.00,2013-11-01 20:27:00,
2013-11-01 16:32:00,64.8,62.1,29.80,SE,128,0.0,0.0,91,0.31,,,0.67,VWS V14.00,2013-11-01 20:32:00,
2013-11-01 16:37:00,64.8,62.1,29.80,SE,128,0.0,0.0,91,0.31,,,0.67,VWS V14.00,2013-11-01 20:37:00,
2013-11-01 16:42:00,64.8,62.1,29.80,SE,128,0.0,0.0,91,0.24,,,0.71,VWS V14.00,2013-11-01 20:42:00,
2013-11-01 16:47:00,64.8,62.1,29.80,SE,128,0.0,0.0,91,0.31,,,0.75,VWS V14.00,2013-11-01 20:47:00,
2013-11-01 16:52:00,64.8,62.1,29.80,SE,128,0.0,0.0,91,0.31,,,0.75,VWS V14.00,2013-11-01 20:52:00,
2013-11-01 16:58:00,64.8,62.1,29.80,SE,127,0.0,0.0,91,0.31,,,0.75,VWS V14.00,2013-11-01 20:58:00,
2013-11-01 17:03:00,64.8,62.1,29.80,SE,128,0.0,0.0,91,0.31,,,0.75,VWS V14.00,2013-11-01 21:03:00,
2013-11-01 17:08:00,64.8,62.1,29.80,South,171,0.0,0.0,91,0.31,,,0.75,VWS V14.00,2013-11-01 21:08:00,
2013-11-01 17:13:00,64.8,62.1,29.80,NNW,334,0.0,0.0,91,0.16,,,0.79,VWS V14.00,2013-11-01 21:13:00,
2013-11-01 17:18:00,64.8,62.1,29.80,NNW,334,0.0,0.0,91,0.16,,,0.83,VWS V14.00,2013-11-01 21:18:00,
2013-11-01 17:23:00,64.8,62.1,29.80,WNW,282,0.0,0.0,91,0.16,,,0.83,VWS V14.00,2013-11-01 21:23:00,
2013-11-01 17:28:00,64.8,62.1,29.80,WNW,282,0.0,0.0,91,0.35,,,0.87,VWS V14.00,2013-11-01 21:28:00,
2013-11-01 17:33:00,64.8,62.1,29.80,WNW,282,0.0,0.0,91,0.35,,,0.87,VWS V14.00,2013-11-01 21:33:00,
2013-11-01 17:38:00,64.8,62.1,29.80,SSW,212,0.0,0.0,91,0.35,,,0.87,VWS V14.00,2013-11-01 21:38:00,
2013-11-01 17:43:00,64.8,62.1,29.80,ESE,116,0.0,2.7,91,0.35,,,0.87,VWS V14.00,2013-11-01 21:43:00,
2013-11-01 17:48:00,64.8,62.1,29.80,WSW,245,2.2,2.7,91,0.16,,,0.94,VWS V14.00,2013-11-01 21:48:00,
2013-11-01 17:54:00,64.8,62.1,29.80,West,270,0.0,0.0,91,0.16,,,0.94,VWS V14.00,2013-11-01 21:54:00,
2013-11-01 17:59:00,64.8,62.1,29.80,West,270,0.0,0.0,91,0.16,,,0.94,VWS V14.00,2013-11-01 21:59:00,
2013-11-01 18:04:00,64.8,62.1,29.80,West,270,0.0,0.0,91,0.16,,,0.94,VWS V14.00,2013-11-01 22:04:00,
2013-11-01 18:09:00,64.8,62.1,29.77,West,273,0.0,0.0,91,0.16,,,0.94,VWS V14.00,2013-11-01 22:09:00,
2013-11-01 18:14:00,64.8,62.1,29.77,SW,218,0.0,0.0,91,0.16,,,0.94,VWS V14.00,2013-11-01 22:14:00,
2013-11-01 18:19:00,64.8,62.1,29.77,SW,218,0.0,0.0,91,0.16,,,0.94,VWS V14.00,2013-11-01 22:19:00,
2013-11-01 18:24:00,64.8,62.1,29.77,WSW,237,0.0,0.0,91,0.16,,,0.94,VWS V14.00,2013-11-01 22:24:00,
2013-11-01 18:29:00,64.8,62.1,29.77,WSW,237,0.0,0.0,91,0.16,,,0.94,VWS V14.00,2013-11-01 22:29:00,
2013-11-01 18:34:00,64.8,62.1,29.77,WSW,237,0.0,0.0,91,0.16,,,0.94,VWS V14.00,2013-11-01 22:34:00,
2013-11-01 18:39:00,64.8,62.1,29.77,SW,236,0.0,0.0,91,0.08,,,0.98,VWS V14.00,2013-11-01 22:39:00,
2013-11-01 18:44:00,64.8,62.1,29.77,SW,236,0.0,0.0,91,0.08,,,0.98,VWS V14.00,2013-11-01 22:44:00,
2013-11-01 18:49:00,64.8,62.1,29.77,SW,236,0.0,0.0,91,0.08,,,0.98,VWS V14.00,2013-11-01 22:49:00,
2013-11-01 18:55:00,64.8,62.1,29.77,WSW,237,0.0,0.0,91,0.08,,,0.98,VWS V14.00,2013-11-01 22:55:00,
2013-11-01 19:00:00,64.8,62.1,29.77,SW,236,0.0,0.0,91,0.08,,,0.98,VWS V14.00,2013-11-01 23:00:00,
2013-11-01 19:05:00,64.8,62.1,29.77,WSW,237,0.0,0.0,91,0.08,,,0.98,VWS V14.00,2013-11-01 23:05:00,
2013-11-01 19:10:00,64.8,62.1,29.77,WSW,237,0.0,0.0,91,0.08,,,0.98,VWS V14.00,2013-11-01 23:10:00,
2013-11-01 19:15:00,64.8,62.1,29.77,SW,236,0.0,0.0,91,0.08,,,0.98,VWS V14.00,2013-11-01 23:15:00,
2013-11-01 19:20:00,64.8,62.1,29.77,WSW,237,0.0,0.0,91,0.08,,,0.98,VWS V14.00,2013-11-01 23:20:00,
2013-11-01 19:25:00,64.8,62.1,29.77,WSW,237,0.0,0.0,91,0.08,,,0.98,VWS V14.00,2013-11-01 23:25:00,
2013-11-01 19:30:00,64.8,62.1,29.77,SW,236,0.0,0.0,91,0.08,,,0.98,VWS V14.00,2013-11-01 23:30:00,
2013-11-01 19:35:00,64.8,62.1,29.80,SW,236,0.0,0.0,91,0.08,,,0.98,VWS V14.00,2013-11-01 23:35:00,
2013-11-01 19:40:00,64.8,62.1,29.80,WSW,237,0.0,0.0,91,0.08,,,0.98,VWS V14.00,2013-11-01 23:40:00,
2013-11-01 19:45:00,64.8,62.1,29.80,WSW,237,0.0,0.0,91,0.08,,,0.98,VWS V14.00,2013-11-01 23:45:00,
2013-11-01 19:50:00,64.8,62.1,29.80,WSW,237,0.0,0.0,91,0.08,,,0.98,VWS V14.00,2013-11-01 23:50:00,
2013-11-01 19:55:00,64.8,62.1,29.80,SW,226,0.0,0.0,91,0.08,,,0.98,VWS V14.00,2013-11-01 23:55:00,
2013-11-01 20:00:00,64.8,62.1,29.80,SW,227,0.0,0.0,91,0.08,,,0.98,VWS V14.00,2013-11-02 00:00:00,
2013-11-01 20:05:00,64.8,62.1,29.80,SSW,205,0.0,2.7,91,0.08,,,0.98,VWS V14.00,2013-11-02 00:05:00,
2013-11-01 20:11:00,64.8,62.1,29.80,SSW,207,0.0,0.0,91,0.08,,,0.98,VWS V14.00,2013-11-02 00:11:00,
2013-11-01 20:16:00,64.8,62.1,29.80,SSW,208,0.0,0.0,91,0.08,,,0.98,VWS V14.00,2013-11-02 00:16:00,
2013-11-01 20:21:00,64.8,62.1,29.80,SSW,208,0.0,0.0,91,0.08,,,0.98,VWS V14.00,2013-11-02 00:21:00,
2013-11-01 20:26:00,64.8,62.1,29.80,SW,226,0.0,2.7,91,0.08,,,0.98,VWS V14.00,2013-11-02 00:26:00,
2013-11-01 20:31:00,64.8,62.1,29.80,SSW,211,0.0,2.7,91,0.08,,,0.98,VWS V14.00,2013-11-02 00:31:00,
2013-11-01 20:36:00,64.8,62.1,29.80,SW,230,0.0,2.7,91,0.08,,,0.98,VWS V14.00,2013-11-02 00:36:00,
2013-11-01 20:41:00,64.8,62.1,29.80,WNW,287,0.0,2.7,91,0.08,,,0.98,VWS V14.00,2013-11-02 00:41:00,
2013-11-01 20:46:00,64.8,62.1,29.80,SSW,198,0.0,0.0,91,0.00,,,0.98,VWS V14.00,2013-11-02 00:46:00,
2013-11-01 20:51:00,64.8,62.1,29.80,WSW,244,0.0,2.2,91,0.00,,,0.98,VWS V14.00,2013-11-02 00:51:00,
2013-11-01 20:56:00,64.8,62.1,29.80,SW,220,0.0,2.2,91,0.00,,,0.98,VWS V14.00,2013-11-02 00:56:00,
2013-11-01 21:01:00,64.8,62.1,29.80,SW,224,0.0,3.1,91,0.00,,,0.98,VWS V14.00,2013-11-02 01:01:00,
2013-11-01 21:06:00,64.8,62.1,29.80,SW,224,0.0,0.0,91,0.00,,,0.98,VWS V14.00,2013-11-02 01:06:00,
2013-11-01 21:11:00,64.8,62.1,29.80,SW,224,0.0,0.0,91,0.00,,,0.98,VWS V14.00,2013-11-02 01:11:00,
2013-11-01 21:17:00,64.8,62.1,29.80,WSW,250,3.1,3.1,91,0.00,,,0.98,VWS V14.00,2013-11-02 01:17:00,
2013-11-01 21:22:00,64.8,62.1,29.80,West,263,0.0,3.6,91,0.00,,,0.98,VWS V14.00,2013-11-02 01:22:00,
2013-11-01 21:27:00,64.8,62.1,29.80,SSW,208,0.0,6.7,91,0.00,,,0.98,VWS V14.00,2013-11-02 01:27:00,
2013-11-01 21:32:00,64.8,62.1,29.80,SW,224,2.7,3.1,91,0.00,,,0.98,VWS V14.00,2013-11-02 01:32:00,
2013-11-01 21:37:00,64.8,62.1,29.80,SSW,212,5.8,5.8,91,0.00,,,0.98,VWS V14.00,2013-11-02 01:37:00,
2013-11-01 21:42:00,64.8,62.1,29.80,SW,236,4.0,5.4,91,0.00,,,0.98,VWS V14.00,2013-11-02 01:42:00,
2013-11-01 21:47:00,64.8,62.1,29.80,SSW,192,0.0,2.7,91,0.00,,,0.98,VWS V14.00,2013-11-02 01:47:00,
2013-11-01 21:52:00,64.8,62.1,29.80,SW,228,3.6,5.4,91,0.00,,,0.98,VWS V14.00,2013-11-02 01:52:00,
2013-11-01 21:57:00,64.8,62.1,29.80,SSW,213,2.2,4.0,91,0.00,,,0.98,VWS V14.00,2013-11-02 01:57:00,
2013-11-01 22:02:00,64.8,62.1,29.80,WSW,254,3.1,3.1,91,0.00,,,0.98,VWS V14.00,2013-11-02 02:02:00,
2013-11-01 22:07:00,64.8,62.1,29.80,WSW,245,3.1,3.6,91,0.00,,,0.98,VWS V14.00,2013-11-02 02:07:00,
2013-11-01 22:12:00,64.8,62.1,29.80,WSW,248,0.0,0.0,91,0.00,,,0.98,VWS V14.00,2013-11-02 02:12:00,
2013-11-01 22:17:00,64.8,62.1,29.80,WSW,255,0.0,4.0,91,0.00,,,0.98,VWS V14.00,2013-11-02 02:17:00,
2013-11-01 22:23:00,64.8,62.1,29.80,West,278,4.9,4.9,91,0.00,,,0.98,VWS V14.00,2013-11-02 02:23:00,
2013-11-01 22:28:00,64.8,62.1,29.80,SW,234,0.0,4.0,91,0.00,,,0.98,VWS V14.00,2013-11-02 02:28:00,
2013-11-01 22:33:00,64.8,62.1,29.80,SW,219,4.9,8.1,91,0.00,,,0.98,VWS V14.00,2013-11-02 02:33:00,
2013-11-01 22:38:00,64.8,62.1,29.80,WSW,239,2.7,5.8,91,0.00,,,0.98,VWS V14.00,2013-11-02 02:38:00,
2013-11-01 22:43:00,64.8,62.1,29.80,SW,236,4.0,4.0,91,0.00,,,0.98,VWS V14.00,2013-11-02 02:43:00,
2013-11-01 22:48:00,64.8,62.1,29.80,SW,223,3.1,6.7,91,0.00,,,0.98,VWS V14.00,2013-11-02 02:48:00,
2013-11-01 22:53:00,64.8,62.1,29.80,WSW,249,3.6,5.8,91,0.00,,,0.98,VWS V14.00,2013-11-02 02:53:00,
2013-11-01 22:58:00,64.8,62.1,29.80,NW,314,3.1,3.1,91,0.00,,,0.98,VWS V14.00,2013-11-02 02:58:00,
2013-11-01 23:03:00,64.8,62.1,29.80,SW,236,2.2,3.1,91,0.00,,,0.98,VWS V14.00,2013-11-02 03:03:00,
2013-11-01 23:08:00,64.8,62.1,29.80,WSW,255,0.0,2.7,91,0.00,,,0.98,VWS V14.00,2013-11-02 03:08:00,
2013-11-01 23:13:00,64.8,62.1,29.80,West,268,3.1,8.3,91,0.00,,,0.98,VWS V14.00,2013-11-02 03:13:00,
2013-11-01 23:18:00,64.8,62.1,29.80,WNW,282,0.0,2.2,91,0.00,,,0.98,VWS V14.00,2013-11-02 03:18:00,
2013-11-01 23:24:00,64.8,62.1,29.80,West,264,0.0,3.6,91,0.00,,,0.98,VWS V14.00,2013-11-02 03:24:00,
2013-11-01 23:29:00,64.8,62.1,29.80,West,273,0.0,0.0,91,0.00,,,0.98,VWS V14.00,2013-11-02 03:29:00,
2013-11-01 23:34:00,64.8,62.1,29.80,WSW,252,2.2,2.2,91,0.00,,,0.98,VWS V14.00,2013-11-02 03:34:00,
2013-11-01 23:39:00,64.8,62.1,29.80,WSW,242,0.0,3.6,91,0.00,,,0.98,VWS V14.00,2013-11-02 03:39:00,
2013-11-01 23:44:00,64.8,62.1,29.80,NW,312,3.6,4.0,91,0.00,,,0.98,VWS V14.00,2013-11-02 03:44:00,
2013-11-01 23:49:00,64.8,62.1,29.80,West,268,0.0,3.1,91,0.00,,,0.98,VWS V14.00,2013-11-02 03:49:00,
2013-11-01 23:54:00,64.8,62.1,29.80,SW,236,3.1,5.4,91,0.00,,,0.98,VWS V14.00,2013-11-02 03:54:00,
2013-11-01 23:59:00,64.8,62.1,29.80,West,260,3.1,5.8,91,0.00,,,0.98,VWS V14.00,2013-11-02 03:59:00,